Regional Weather Roundup
Issued by NWS Sterling, VA

Home | Current Version | Previous Version | Graphics & Text | Print | Product List | Glossary On
Versions: 1 2 3 4 5 6 7 8 9 10 11 12 13 14 15 16 17 18 19 20 21 22 23 24 25 26 27
000
ASUS41 KLWX 152111
RWRLWX

REGIONAL WEATHER ROUNDUP
NATIONAL WEATHER SERVICE BALTIMORE MD/WASHINGTON DC
400 PM EST FRI DEC 15 2017

Note: "FAIR" indicates few or no clouds below 12,000 feet
with no significant weather and/or obstructions to visibility.
 TC=TEMPERATURE CELSIUS

 * =Non NWS site. Station does not report precipitation (e.g. rain,
    snow, etc.), thunder, or fog.

DCZ001-MDZ009-015-VAZ040>042-051-053>054-152200-
WASHINGTON METRO

CITY           SKY/WX    TMP DP  RH WIND       PRES   REMARKS
WASHINGTON NAT FLURRIES  29  25  85 CALM      29.96S
DULLES         LGT SNOW  27  25  92 CALM      29.94S FOG
ANDREWS AFB    LGT SNOW  26  23  89 CALM      29.92F FOG
FT BELVOIR     CLOUDY    28  23  82 CALM      29.95S
QUANTICO       CLOUDY    29  25  85 CALM      29.96S
COLLEGE PARK*  CLOUDY    26  24  90 CALM      29.94S
LEESBURG*      CLOUDY    30  27  86 CALM      29.93F
MANASSAS*      CLOUDY    28  25  88 NW5       29.95S
GAITHERSBURG*  FLURRIES  25  22  88 NW3       29.93S

$$

MDZ006>007-011-014-152200-
BALTIMORE METRO

CITY           SKY/WX    TMP DP  RH WIND       PRES   REMARKS
BWI AIRPORT    LGT SNOW  26  25  96 NW3       29.94R VSB 1
MD SCIENCE CTR   N/A     28  24  85 MISG      29.94S
MARTIN STATE   SNOW      27  27 100 NW3       29.97R VSB 1/2
ANNAPOLIS      SNOW      28  28 100 N6        29.95R VSB 1/2
FORT MEADE*    CLOUDY    27  27 100 CALM      29.96F

$$

MDZ012-015-019>023-152200-
MARYLAND EASTERN SHORE

CITY           SKY/WX    TMP DP  RH WIND       PRES   REMARKS
OCEAN CITY     CLOUDY    41  34  76 N8        29.85F
SALISBURY      CLOUDY    34  28  79 N8        29.87S WCI  27
BAY BRIDGE AP* LGT SNOW  28  25  86 MISG      29.95R VSB 3/4
CAMBRIDGE*     CLOUDY    28  25  86 N12G17    29.91R HAZE    WCI  18
EASTON*        LGT SNOW  28  21  74 N8        29.97R WCI  20

$$

MDZ017>025-152200-
SOUTHERN MARYLAND

CITY           SKY/WX    TMP DP  RH WIND       PRES   REMARKS
PATUXENT RIVER FLURRIES  31  27  85 NW16      29.93R WCI  20
ST INIGOES     CLOUDY    33  24  69 VRB6      29.92R
LEONARDTOWN*   CLOUDY    30  25  80 NW6       29.94R

$$

MDZ003>005-152200-
NORTH CENTRAL MARYLAND

CITY           SKY/WX    TMP DP  RH WIND       PRES   REMARKS
FREDERICK*     MOCLDY    27  19  74 S3        29.97S
HAGERSTOWN APT CLOUDY    27  20  75 S7        29.89F
WESTMINSTER*   LGT SNOW  25  23  93 SW3       29.90R

$$

MDZ501>502-152200-
WESTERN MARYLAND

CITY           SKY/WX    TMP DP  RH WIND       PRES   REMARKS
OAKLAND*       PTCLDY    19  14  79 W14G26    29.74S WCI   6
CUMBERLAND*    MOCLDY    28  19  69 CALM      29.93F

$$

VAZ025>031-152200-
SHENANDOAH VALLEY

CITY           SKY/WX    TMP DP  RH WIND       PRES   REMARKS
WINCHESTER*    CLOUDY    30  19  64 SW3       29.90S
FRONT ROYAL*   CLOUDY    30  21  69 MISG      29.89F
LURAY*         CLOUDY    32  27  80 S3        29.89S
NEW MARKET*    CLOUDY    31  20  63 CALM      29.88F
STAUNTON*      CLOUDY    33  24  70 S8        29.88F WCI  26
WAYNESBORO*    CLOUDY    32  24  71 SW7       29.87S

$$

WVZ021-048>050-054>055-152200-
EASTERN WEST VIRGINIA PANHANDLE

CITY           SKY/WX    TMP DP  RH WIND       PRES   REMARKS
MARTINSBURG    CLOUDY    29  19  66 S3        29.90F
PETERSBURG*    PTCLDY    32  18  55 W18G25    29.89S WCI  20

$$

VAZ036>039-050-152200-
CENTRAL FOOTHILLS

CITY           SKY/WX    TMP DP  RH WIND       PRES   REMARKS
CHARLOTTESVILL MOCLDY    32  22  66 S7        29.90F
CULPEPER*      CLOUDY    30  24  77 CALM      29.94F
ORANGE*        CLOUDY    30  23  74 CALM      29.92S
GORDONSVILLE*  CLOUDY    31  23  72 CALM      29.91F
WARRENTON*     CLOUDY    30  23  75 CALM      29.93S

$$

VAZ055>057-152200-
NORTH AND CENTRAL PIEDMONT

CITY           SKY/WX    TMP DP  RH WIND       PRES   REMARKS
FREDERICKSBRG* CLOUDY    31  25  78 CALM      29.94F
STAFFORD*      CLOUDY    30  26  85 CALM      29.98F

$$

NCZ024-NYZ072-PAZ021-071-VAZ022-071-152200-
OTHER REGIONAL OBSERVATIONS

CITY           SKY/WX    TMP DP  RH WIND       PRES   REMARKS
NEW YORK CITY  SNOW      24  20  84 NW6       29.93F VSB 1/2
PHILADELPHIA   SNOW      25  22  88 NW3       29.96R VSB 1/2
PITTSBURGH     CLOUDY    29  14  53 SW13G21   29.86F WCI  19
ROANOKE        MOCLDY    37  21  52 NW14G23   29.93R WCI  28
RICHMOND       MOCLDY    36  19  50 NW12      29.93R WCI  28
RALEIGH        CLOUDY    41  27  57 VRB5      29.95R

$$

ANZ530>537-152200-
MARINE OBSERVATIONS

STATION/POSITION TIME  TEMP    WIND        PRES
                       AIR SEA DIR/SP/G
                 (UTC) (F)     (DEG/KT/KT) (MB)
THOMAS PT LIGHT  2100   27 44  340/  7/  8   N/A
BALT KEY BRIDGE  2048   26     360/  5/  5 1014.2R
COVE POINT       2048   30     340/ 19/ 23 1014.0R
LEWISETTA        2048   34 40  330/ 10/ 12 1013.2R
SOLOMONS ISLAND  2048   30 45  320/ 11/ 15 1013.4R
PINEY POINT      2036          340/ 14/ 16   N/A

$$





USA.gov is the U.S. government's official web portal to all federal, state and local government web resources and services.